| time (UTC) | temp C | wind direction | speed KPH | gust KPH | rain 1hr cm | rain 24hr cm | rain mn cm | humidity % | barometer mb |
| 20260507113038 | 1 | 179 | 6.4 | 11.3 | 0.00 | 0.25 | 0.00 | 90 | 1014.2 |
| 20260507111535 | 1 | 173 | 3.2 | 8.0 | 0.00 | 0.25 | 0.00 | 91 | 1014.3 |
| 20260507110032 | 0 | 181 | 3.2 | 4.8 | 0.00 | 0.28 | 0.00 | 90 | 1014.5 |
| 20260507104529 | 1 | 153 | 1.6 | 6.4 | 0.00 | 0.28 | 0.00 | 90 | 1014.6 |
| 20260507103029 | 1 | 179 | 3.2 | 6.4 | 0.00 | 0.28 | 0.00 | 90 | 1014.8 |
| 20260507101534 | 1 | 170 | 3.2 | 6.4 | 0.00 | 0.28 | 0.00 | 90 | 1015.0 |
| 20260507100032 | 1 | 174 | 3.2 | 6.4 | 0.00 | 0.28 | 0.00 | 90 | 1015.2 |
| 20260507094523 | 1 | 160 | 3.2 | 8.0 | 0.00 | 0.28 | 0.00 | 90 | 1015.4 |
| 20260507093035 | 1 | 187 | 3.2 | 6.4 | 0.00 | 0.28 | 0.00 | 89 | 1015.8 |
| 20260507091517 | 1 | 186 | 3.2 | 6.4 | 0.00 | 0.28 | 0.00 | 89 | 1015.7 |
| 20260507090025 | 1 | 175 | 3.2 | 8.0 | 0.00 | 0.28 | 0.00 | 88 | 1016.1 |
| 20260507084511 | 2 | 183 | 6.4 | 12.9 | 0.00 | 0.28 | 0.00 | 88 | 1016.3 |
| 20260507083015 | 2 | 190 | 6.4 | 12.9 | 0.00 | 0.28 | 0.00 | 87 | 1016.6 |
| 20260507081506 | 2 | 167 | 8.0 | 16.1 | 0.00 | 0.28 | 0.00 | 87 | 1016.7 |
| 20260507080006 | 3 | 187 | 8.0 | 17.7 | 0.00 | 0.30 | 0.00 | 87 | 1016.9 |
| 20260507074513 | 3 | 193 | 11.3 | 16.1 | 0.00 | 0.30 | 0.00 | 87 | 1016.9 |
| 20260507073002 | 2 | 174 | 6.4 | 11.3 | 0.00 | 0.30 | 0.00 | 88 | 1017.1 |
| 20260507071613 | 3 | 189 | 6.4 | 11.3 | 0.00 | 0.30 | 0.00 | 87 | 1017.2 |
| 20260507070058 | 3 | 200 | 9.7 | 14.5 | 0.00 | 0.33 | 0.00 | 87 | 1017.4 |
| 20260507064558 | 3 | 177 | 8.0 | 16.1 | 0.00 | 0.33 | 0.00 | 88 | 1017.8 |
| 20260507063055 | 3 | 184 | 4.8 | 9.7 | 0.00 | 0.33 | 0.00 | 88 | 1018.0 |
| 20260507061551 | 3 | 192 | 6.4 | 11.3 | 0.00 | 0.33 | 0.00 | 88 | 1017.9 |
| 20260507060049 | 3 | 179 | 6.4 | 14.5 | 0.00 | 0.41 | 0.00 | 88 | 1018.0 |
| 20260507054552 | 3 | 209 | 8.0 | 14.5 | 0.00 | 0.41 | 0.00 | 88 | 1018.3 |
| 20260507053048 | 3 | 195 | 8.0 | 14.5 | 0.00 | 0.41 | 0.00 | 88 | 1018.4 |
| 20260507051544 | 3 | 206 | 6.4 | 14.5 | 0.00 | 0.41 | 0.00 | 88 | 1018.4 |
| 20260507050040 | 3 | 180 | 4.8 | 9.7 | 0.00 | 0.46 | 0.41 | 89 | 1018.6 |
| 20260507044640 | 3 | 190 | 4.8 | 8.0 | 0.00 | 0.46 | 0.41 | 89 | 1018.6 |
| 20260507043040 | 3 | 167 | 3.2 | 8.0 | 0.00 | 0.46 | 0.41 | 88 | 1018.8 |
| 20260507041538 | 3 | 184 | 4.8 | 9.7 | 0.00 | 0.46 | 0.41 | 88 | 1018.8 |
| 20260507040040 | 3 | 179 | 4.8 | 8.0 | 0.00 | 0.58 | 0.41 | 88 | 1019.0 |
| 20260507034535 | 3 | 184 | 3.2 | 6.4 | 0.00 | 0.58 | 0.41 | 88 | 1019.0 |
| 20260507033038 | 3 | 193 | 1.6 | 6.4 | 0.00 | 0.58 | 0.41 | 87 | 1019.1 |
| 20260507031531 | 3 | 219 | 1.6 | 3.2 | 0.00 | 0.58 | 0.41 | 86 | 1019.2 |
| 20260507030032 | 3 | 195 | 1.6 | 4.8 | 0.00 | 0.64 | 0.41 | 85 | 1019.2 |
| 20260507024533 | 4 | 182 | 1.6 | 4.8 | 0.00 | 0.64 | 0.41 | 82 | 1019.0 |
| 20260507023030 | 5 | 176 | 3.2 | 6.4 | 0.00 | 0.64 | 0.41 | 81 | 1019.0 |
| 20260507021528 | 6 | 185 | 3.2 | 4.8 | 0.00 | 0.64 | 0.41 | 79 | 1018.9 |
| 20260507020030 | 6 | 169 | 3.2 | 8.0 | 0.00 | 0.66 | 0.41 | 76 | 1018.7 |
| 20260507014528 | 7 | 163 | 3.2 | 8.0 | 0.00 | 0.66 | 0.41 | 73 | 1018.6 |
| 20260507013035 | 8 | 153 | 4.8 | 9.7 | 0.00 | 0.66 | 0.41 | 72 | 1018.7 |
| 20260507011536 | 9 | 160 | 4.8 | 8.0 | 0.00 | 0.66 | 0.41 | 73 | 1018.8 |
| 20260507010028 | 9 | 153 | 4.8 | 8.0 | 0.00 | 0.66 | 0.41 | 73 | 1018.9 |
| 20260507004525 | 8 | 130 | 3.2 | 8.0 | 0.00 | 0.66 | 0.41 | 73 | 1019.0 |
| 20260507003025 | 10 | 149 | 6.4 | 12.9 | 0.00 | 0.66 | 0.41 | 64 | 1019.0 |
| 20260507001529 | 10 | 184 | 3.2 | 8.0 | 0.00 | 0.66 | 0.41 | 69 | 1019.2 |
| 20260507000024 | 10 | 190 | 3.2 | 9.7 | 0.00 | 0.66 | 0.41 | 68 | 1019.2 |
| 20260506234530 | 10 | 125 | 3.2 | 12.9 | 0.00 | 0.66 | 0.41 | 67 | 1019.4 |
| 20260506233025 | 10 | 115 | 4.8 | 9.7 | 0.03 | 0.66 | 0.41 | 68 | 1019.3 |
| 20260506231524 | 10 | 155 | 3.2 | 8.0 | 0.05 | 0.66 | 0.41 | 69 | 1019.5 |
| 20260506230022 | 8 | 105 | 3.2 | 8.0 | 0.05 | 0.69 | 0.41 | 75 | 1019.5 |
| 20260506224527 | 8 | 88 | 4.8 | 11.3 | 0.05 | 0.69 | 0.41 | 78 | 1019.6 |
| 20260506223020 | 8 | 210 | 6.4 | 16.1 | 0.03 | 0.66 | 0.38 | 72 | 1020.0 |
| 20260506221519 | 8 | 260 | 6.4 | 16.1 | 0.00 | 0.64 | 0.36 | 68 | 1019.8 |
| 20260506220019 | 9 | 271 | 9.7 | 16.1 | 0.00 | 0.66 | 0.36 | 65 | 1019.8 |
| 20260506214519 | 11 | 242 | 6.4 | 9.7 | 0.00 | 0.66 | 0.36 | 58 | 1019.9 |
| 20260506213021 | 11 | 184 | 3.2 | 9.7 | 0.00 | 0.66 | 0.36 | 61 | 1020.2 |
| 20260506211517 | 10 | 152 | 1.6 | 6.4 | 0.00 | 0.66 | 0.36 | 64 | 1020.3 |
| 20260506210012 | 9 | 186 | 0.0 | 8.0 | 0.00 | 0.66 | 0.36 | 65 | 1020.5 |
| 20260506204510 | 9 | 124 | 3.2 | 6.4 | 0.03 | 0.66 | 0.36 | 66 | 1020.7 |
| 20260506203009 | 8 | 85 | 3.2 | 9.7 | 0.13 | 0.66 | 0.36 | 67 | 1020.7 |
| 20260506201508 | 7 | 155 | 3.2 | 11.3 | 0.15 | 0.66 | 0.36 | 79 | 1021.1 |
| 20260506200011 | 7 | 214 | 1.6 | 3.2 | 0.15 | 0.66 | 0.36 | 79 | 1021.2 |
| 20260506194508 | 6 | 338 | 4.8 | 12.9 | 0.13 | 0.64 | 0.33 | 82 | 1021.2 |
| 20260506193006 | 7 | 308 | 12.9 | 17.7 | 0.03 | 0.53 | 0.23 | 78 | 1021.3 |
| 20260506191506 | 9 | 79 | 9.7 | 17.7 | 0.00 | 0.51 | 0.20 | 66 | 1021.1 |
| 20260506190004 | 9 | 151 | 8.0 | 14.5 | 0.00 | 0.58 | 0.20 | 70 | 1021.2 |
| 20260506184603 | 8 | 193 | 3.2 | 9.7 | 0.00 | 0.58 | 0.20 | 72 | 1021.6 |
| 20260506183111 | 8 | 191 | 4.8 | 9.7 | 0.00 | 0.58 | 0.20 | 69 | 1021.7 |
| 20260506181601 | 8 | 214 | 3.2 | 11.3 | 0.00 | 0.58 | 0.20 | 70 | 1021.9 |
| 20260506180057 | 8 | 158 | 4.8 | 11.3 | 0.00 | 0.71 | 0.20 | 74 | 1021.9 |
| 20260506174606 | 7 | 165 | 3.2 | 9.7 | 0.00 | 0.71 | 0.20 | 76 | 1022.0 |
| 20260506173055 | 6 | 197 | 4.8 | 8.0 | 0.00 | 0.71 | 0.20 | 78 | 1022.2 |
| 20260506171548 | 6 | 214 | 4.8 | 9.7 | 0.00 | 0.71 | 0.20 | 79 | 1022.2 |
| 20260506170048 | 6 | 220 | 3.2 | 9.7 | 0.00 | 0.81 | 0.20 | 81 | 1022.2 |
| 20260506164549 | 6 | 226 | 4.8 | 9.7 | 0.00 | 0.81 | 0.20 | 82 | 1021.9 |
| 20260506163057 | 6 | 238 | 3.2 | 12.9 | 0.00 | 0.81 | 0.20 | 82 | 1021.9 |
| 20260506161542 | 6 | 110 | 0.0 | 3.2 | 0.00 | 0.81 | 0.20 | 81 | 1021.8 |
| 20260506160040 | 7 | 261 | 0.0 | 0.0 | 0.00 | 0.81 | 0.20 | 78 | 1021.5 |
| 20260506154541 | 6 | 264 | 0.0 | 3.2 | 0.00 | 0.81 | 0.20 | 81 | 1021.4 |
| 20260506153036 | 6 | 299 | 1.6 | 4.8 | 0.00 | 0.81 | 0.20 | 82 | 1021.0 |
| 20260506151540 | 6 | 291 | 0.0 | 4.8 | 0.00 | 0.81 | 0.20 | 82 | 1021.3 |
| 20260506150032 | 6 | 213 | 0.0 | 4.8 | 0.00 | 0.81 | 0.20 | 85 | 1021.3 |
| 20260506144529 | 6 | 281 | 1.6 | 8.0 | 0.00 | 0.81 | 0.20 | 86 | 1021.4 |
| 20260506143027 | 6 | 259 | 1.6 | 6.4 | 0.00 | 0.81 | 0.20 | 88 | 1021.3 |
| 20260506141522 | 5 | 252 | 1.6 | 8.0 | 0.00 | 0.81 | 0.20 | 89 | 1021.1 |
| 20260506140029 | 5 | 253 | 3.2 | 8.0 | 0.00 | 0.86 | 0.20 | 89 | 1021.0 |
| 20260506134519 | 5 | 269 | 1.6 | 4.8 | 0.00 | 0.86 | 0.20 | 90 | 1020.9 |
| 20260506133020 | 5 | 238 | 0.0 | 4.8 | 0.00 | 0.86 | 0.20 | 91 | 1020.8 |
| 20260506131519 | 5 | 223 | 0.0 | 3.2 | 0.00 | 0.86 | 0.20 | 91 | 1020.7 |
| 20260506130014 | 5 | 224 | 0.0 | 4.8 | 0.00 | 0.86 | 0.20 | 92 | 1020.4 |
| 20260506124511 | 4 | 221 | 0.0 | 1.6 | 0.03 | 0.86 | 0.20 | 93 | 1020.2 |
| 20260506123011 | 4 | 221 | 0.0 | 0.0 | 0.05 | 0.86 | 0.20 | 93 | 1020.0 |
| 20260506121508 | 4 | 217 | 0.0 | 1.6 | 0.05 | 0.86 | 0.20 | 93 | 1019.9 |
| 20260506120011 | 4 | 195 | 0.0 | 0.0 | 0.03 | 0.84 | 0.18 | 93 | 1019.5 |
| 20260506114505 | 4 | 195 | 0.0 | 0.0 | 0.05 | 0.84 | 0.18 | 93 | 1019.3 |